sat.trackr.live / text

‹ back to catalog

STARLINK-11705 [DTC]

NORAD 63758 · 2025-089H

PAYLOAD ACTIVE UNKNOWN

§ Identity

Operator
Country
US
Launch date
2025-04-29
Launch site
AFETR
Launch vehicle
Mass (kg)
RCS (m²)

Purposes: comms

External: N2YO · Heavens-Above · Gunter

§ Orbital elements

Epoch: 2026-09-20T18:18:34.372512Z

Period
91.67 min
Inclination
42.9999°
Eccentricity
0.0002033
Mean motion
15.70886550 rev/d
Perigee alt
355.0 km
Apogee alt
357.7 km
Semi-major
6,734.5 km
B*
1.0323e-3
RAAN
196.5679°
Arg perigee
244.1143°
Mean anomaly
115.9516°
Rev number
8,076

§ Raw data

STARLINK-11705 [DTC]1 63758U 25089H   26263.76289783  .00134441  00000+0  10323-2 0  99992 63758  42.9999 196.5679 0002033 244.1143 115.9516 15.70886550 80767

JSON: /api/v1/satellites/63758 · /tle

For live sub-satellite position, see the globe view (requires WebGL).

§ Visibility from observer

Set your observer location to see the next 7 days of passes ≥ 10°. The values pass through the URL so the page stays shareable.

No JS? Fill the form by hand. The geolocation button needs JavaScript.